Showing default

AEROCUBE 18B, 63222

Orbit data source: Space-Track

AEROCUBE 18B, 63222 is a payload satellite owned by AERO (US) in SSO that was launched on Sat, 15 Mar 2025 UTC via an FALCON 9 launch vehicle from the Air Force Western Test Range (AFWTR). Payload-class satellites include a variety of spacecraft equipped with specific instruments for various scientific and technological missions. These include communications satellites like Starlink; space stations such as the ISS; scientific satellites like the Hubble; Earth observation satellites from companies like Planet Labs, Umbra, and HawkEye 360; GPS; miniature CubeSats for education and research; and military/defense satellites.

Loading next visibility...
Identifier
63222, 2025-052N
Orbit
SSO
Country
Flag of USUS
Related business
Manufacturer
AERO
Mission
Operational Defense Technology
Bus & Motor
CUBESAT 6U, Unknown motor
Mass
10 kg wet, 10 kg dry
Launch date (UTC)
2025-03-15 (1 year ago)
Launch vehicle
FALCON 9
Launch site
Air Force Western Test Range (AFWTR)
Object type
Payload
Rocket body
Debris
Shape & HBR
Box + 2 Pan, 0.1 m
Radar Cross Section
0.045 m², Small (<0.1 m²)

Expand to show TLE details & history
Last TLE update: 11 hours ago

TLE from 11 hours ago
0 AEROCUBE 18B
1 63222U 25052N   26129.65154265  .00004541  00000-0  19088-3 0  9996
2 63222  97.4013  23.6123 0002614 259.8599 100.2343 15.23915057 64021
Epoch: 2026-05-09T15:38Z
TLE epoch observation values (Epoch: 2026-05-09T15:38:13.284Z)
Latitude
-0.0001°
Longitude
-78.40895°
Altitude
497.461 km
Speed
7.616 km/s
True Right ascension
01h 34m 26s
True Declination
0° 00' 00"
Sunlit
Object was in daylight at epoch
Visualization orbit readout
Latitude
Unknown
Longitude
Unknown
Altitude
Unknown
Speed
Unknown
Apparent Right ascension
Unknown
Apparent Declination
Unknown
Sunlit
N/A
Visualization observer readout
Local Sidereal Time
10:32:32
Azimuth
Unknown
Elevation
Unknown
Doppler factor
Unknown
Orbital elements
Apogee altitude
492.801 km
Perigee altitude
489.21 km
Semi-major axis
6,869.143 km
Eccentricity
0.00026
Inclination
97.4013°
RAAN
23.6123°
Arg. of periapsis
259.8599°
True anomaly
100.26378°
Mean anomaly
100.2343°
Eccentric anomaly
100.24904°
Mean motion
3.81232 °/min
Orbital period
94.43 mins
BSTAR
0.00019088
Loading maneuver chart data...
Computing Atmospheric mass density...
Loading historical data...
Loading historical data...
Loading historical data...
Loading historical data...
Loading historical data...
Loading historical data...
Loading historical data...

Documentation

Showing up to 5 results
|